Cloud_Cover
8 8 8 8 8 8 12 12 12 12 12 12 12 12 12 12 12 12 8 8 8 8 8 8 8 8 8 8 8 8 8 8 8 8 8 8 8 8 12 20 20 20 12 8 8 8 8 20 20 12 8 0 0 32 56 48 48 44 44 44 24 12 8 8 0 8 20 64 68
8 8 8 8 8 8 8 8 8 8 8 8 8 8 8 8 8 8 8 8 8 8 8 8 8 8 8 8 8 8 8 8 8 8 8 8 8 8 8 8 8 8 0 0 12 24 36 36 20 8 8 12 20 32 44 24 12 24 44 48 32 24 20 20 12 8 20 64 68
8 8 8 8 8 8 8 8 8 8 8 8 8 8 8 8 8 8 8 8 8 8 8 8 8 8 8 8 8 8 8 0 0 0 0 0 0 0 0 0 0 0 8 32 48 56 56 44 12 0 0 8 8 8 8 0 0 12 24 32 24 20 20 20 12 8 20 68 76
8 8 8 8 8 8 8 8 8 8 8 8 8 8 8 8 8 8 8 8 8 8 8 8 8 8 8 8 8 0 0 0 0 0 0 0 0 0 0 0 0 0 8 24 24 20 8 8 8 8 8 0 0 8 8 0 32 36 36 32 32 24 24 12 32 36 44 64 48
8 8 8 8 8 8 8 8 8 8 8 8 8 8 8 8 8 8 8 8 8 0 0 0 0 0 0 0 0 0 0 0 0 0 0 0 0 0 0 0 0 0 0 8 8 8 8 8 8 8 0 0 0 0 0 8 32 36 36 44 36 32 20 20 44 56 64 64 32
0 0 0 0 0 0 0 0 0 0 0 0 0 0 0 0 0 0 0 0 0 0 0 0 0 0 0 0 0 0 0 0 8 8 8 0 8 8 8 8 8 8 8 8 8 24 48 44 32 20 12 24 12 24 36 44 44 48 44 24 12 12 12 32 36 36 32 24 44
0 0 0 0 0 0 0 0 0 0 0 0 0 0 0 0 0 0 0 0 0 0 0 0 0 0 0 0 0 8 8 8 8 8 8 8 8 8 8 8 8 8 8 8 36 44 36 32 48 56 56 44 56 48 36 36 36 36 44 36 20 24 44 56 56 56 48 48 36
0 0 0 0 0 0 0 0 0 0 0 0 0 0 0 0 0 0 0 0 0 0 0 0 0 8 8 8 8 8 8 8 8 8 8 8 8 8 12 24 32 24 24 24 24 48 76 76 76 76 76 92 56 44 32 24 24 32 44 56 68 76 76 76 64 56 48 36 56
0 0 0 0 0 0 0 0 0 0 0 0 0 0 0 0 0 0 0 0 0 0 0 0 0 8 8 8 8 8 8 8 12 24 36 36 36 36 32 24 24 32 44 56 88 80 64 64 76 80 88 92 92 68 36 36 48 44 44 68 76 80 76 68 56 44 36 56 56
0 0 0 0 0 0 0 0 0 0 0 0 0 0 0 0 0 0 0 0 0 0 0 0 0 0 8 8 8 8 8 8 12 20 24 24 20 20 20 44 44 68 92 92 92 80 68 56 64 68 76 80 92 92 88 56 80 92 92 92 88 80 76 68 56 48 48 64 68
8 12 20 20 12 12 8 8 8 8 8 8 8 0 0 0 0 0 0 0 0 0 0 0 0 0 0 0 0 8 8 8 0 0 0 0 8 8 24 76 88 92 92 92 92 92 88 80 76 76 80 76 92 92 92 92 92 92 92 92 92 92 92 92 76 68 76 80 80
24 24 24 24 20 20 20 20 20 20 20 20 12 8 0 0 0 0 0 0 0 0 0 0 0 0 0 0 0 0 0 0 0 0 8 12 12 12 32 64 88 92 92 92 92 92 92 88 80 88 92 92 92 92 92 88 88 80 76 80 88 92 92 92 88 88 88 88 88
24 24 24 24 32 36 36 36 36 36 32 24 20 12 8 0 0 0 0 0 0 0 0 0 0 0 0 0 0 0 0 0 8 20 32 32 32 32 48 92 92 92 88 80 80 88 92 92 92 92 88 80 88 88 88 64 76 88 88 88 88 88 92 92 92 92 92 92 88
24 24 24 24 48 64 68 76 68 56 36 32 32 32 24 12 8 0 0 0 0 0 0 0 0 0 0 0 0 0 0 8 20 44 56 24 44 56 68 92 92 88 76 68 68 76 88 92 92 88 80 68 76 76 80 76 76 88 92 92 92 92 92 92 92 92 92 92 92
36 32 32 36 44 48 48 64 64 56 48 36 44 36 32 20 20 8 0 0 0 0 0 0 0 0 0 0 0 0 12 20 20 20 24 32 68 80 88 80 80 68 64 64 68 68 80 92 80 76 76 68 64 68 76 76 88 92 92 92 92 92 92 92 92 92 92 92 92
76 56 48 48 48 48 44 44 36 36 36 32 24 24 20 12 24 12 0 8 8 0 0 0 0 0 0 0 8 20 24 32 24 24 24 44 80 80 76 68 68 56 56 68 80 88 88 80 76 76 68 68 64 68 68 80 88 88 88 88 92 92 92 92 92 92 92 92 92
92 88 76 56 56 56 56 64 64 48 36 32 20 12 8 0 24 20 8 12 12 8 0 0 0 8 12 8 12 24 32 32 44 36 32 64 68 68 64 64 56 48 56 88 92 92 92 80 76 76 68 68 68 68 76 88 88 88 92 88 92 92 92 92 92 92 92 92 92
92 92 92 80 92 92 92 92 92 76 48 36 32 20 8 0 24 24 20 12 12 8 0 0 20 36 36 20 32 32 36 44 64 44 32 64 64 68 68 64 76 76 80 92 92 92 88 80 80 76 76 68 68 68 76 88 92 92 92 92 92 92 92 92 92 92 92 92 92
88 88 92 92 92 92 92 92 92 88 80 76 44 32 20 12 20 20 20 24 12 8 8 8 20 32 36 36 56 48 44 56 64 48 44 68 80 80 76 76 92 92 92 92 92 88 80 80 80 80 76 76 80 80 80 92 92 92 92 92 92 92 92 92 92 92 92 92 92
88 80 76 76 76 76 80 88 76 56 56 92 80 56 32 20 12 20 24 32 24 12 12 8 12 12 24 48 56 56 56 48 64 64 56 56 80 88 80 88 92 92 92 92 88 88 80 80 88 88 88 88 92 92 92 92 92 92 92 92 92 92 92 92 92 92 92 92 92
64 76 80 76 64 56 56 48 44 32 32 68 76 76 68 48 20 20 20 20 20 12 8 0 8 8 20 48 48 56 48 56 56 64 68 68 88 88 80 92 92 92 92 92 88 92 92 92 92 92 92 92 92 92 92 92 92 92 92 92 92 92 92 92 92 92 92 92 92
48 80 92 92 64 48 48 44 44 44 48 80 88 88 92 88 48 36 32 8 0 0 0 0 0 0 8 24 44 48 44 44 48 56 76 88 92 92 92 92 92 92 92 92 92 92 92 92 92 92 92 92 92 92 92 92 92 92 92 92 92 92 92 92 92 92 92 92 88
32 44 48 48 36 36 48 56 44 56 76 92 92 92 92 92 88 68 36 0 0 0 0 0 8 12 20 20 32 44 48 56 64 68 80 92 92 92 92 92 92 92 92 92 92 92 92 92 92 92 92 92 92 92 92 92 92 92 92 92 88 80 88 92 92 92 92 92 88
20 20 20 12 12 20 24 32 32 36 64 92 88 88 88 88 68 48 24 0 8 8 8 12 8 20 32 32 36 48 64 76 80 88 88 92 92 92 92 92 92 92 92 92 92 92 92 92 92 92 92 92 92 92 92 92 92 92 92 88 80 80 80 80 88 92 92 80 76
24 20 12 12 12 20 12 8 8 20 48 92 92 80 68 68 64 48 32 8 8 8 12 24 20 24 44 56 48 68 88 92 92 92 92 92 92 92 92 92 92 92 92 92 92 92 92 92 92 92 88 68 80 88 88 92 92 92 92 92 92 88 80 76 76 76 76 76 68
12 12 8 8 8 0 0 0 8 12 36 88 92 92 92 92 76 64 48 24 20 20 20 24 36 44 64 80 76 76 88 92 92 92 92 92 92 92 92 92 92 92 92 92 92 92 92 92 88 88 88 92 92 92 92 92 92 92 92 88 88 88 80 68 64 64 76 92 92
8 8 8 0 0 0 8 8 12 20 24 32 48 76 92 92 92 80 56 44 36 32 32 32 48 44 44 56 76 80 80 92 92 92 92 92 92 92 92 92 92 92 92 92 92 92 92 92 88 88 92 92 92 92 92 92 92 92 92 88 88 80 80 76 68 68 76 88 92
8 8 8 8 8 8 12 12 24 32 32 32 36 68 92 92 92 68 48 44 36 36 36 32 56 56 56 48 48 56 76 92 92 92 92 92 92 92 92 92 92 92 92 92 92 92 80 76 80 88 92 92 92 92 92 92 92 92 92 88 76 68 68 68 76 88 92 92 92
12 12 12 12 12 12 12 12 20 24 24 20 24 32 36 64 56 56 48 44 36 48 56 48 32 36 48 44 36 48 68 92 92 92 92 92 92 92 92 92 88 80 80 76 76 76 76 80 92 92 92 92 92 92 92 88 88 80 76 76 64 64 68 76 76 88 92 92 92
8 12 12 12 12 12 12 12 20 20 20 24 32 32 32 36 36 44 44 44 44 36 24 20 20 24 36 32 24 36 64 92 92 92 92 92 92 92 88 88 92 88 88 80 76 76 88 92 92 92 92 92 92 88 68 56 76 76 68 56 56 64 68 80 92 92 92 92 92
8 8 8 8 8 8 8 8 8 12 12 8 12 8 8 8 8 8 12 20 20 20 20 12 12 20 24 24 24 64 92 92 92 92 92 92 92 92 92 92 92 88 80 80 76 88 92 92 92 80 68 76 80 76 64 64 68 68 68 68 76 80 88 92 92 92 92 92 92
8 8 8 8 8 8 8 8 8 12 12 12 8 8 12 20 20 20 20 20 24 24 20 20 12 20 32 24 64 80 92 92 92 88 76 92 92 92 92 92 92 92 92 88 92 92 92 88 68 56 64 80 88 80 76 76 76 76 76 76 88 92 92 92 92 92 92 92 88
8 8 0 0 8 8 8 20 32 32 24 24 24 32 24 32 24 24 24 24 24 32 32 24 12 24 36 44 80 92 92 92 92 92 92 80 88 92 92 88 88 92 92 92 92 92 92 92 80 76 76 88 92 92 92 92 92 88 80 76 80 88 92 92 88 88 92 92 88
0 0 0 0 12 24 32 24 32 32 32 32 32 32 24 32 32 32 32 32 36 44 44 32 36 56 76 92 92 92 92 92 92 92 92 92 92 92 92 92 92 92 92 92 92 92 92 92 92 92 92 92 92 92 92 92 88 92 92 88 88 80 80 88 80 88 92 88 88
0 0 8 20 32 36 36 36 36 36 44 44 44 44 36 36 32 32 36 44 56 56 56 44 48 68 88 92 92 92 92 92 92 92 88 92 92 92 92 88 92 92 92 92 92 92 92 92 92 92 92 92 92 92 92 92 92 92 92 92 88 76 68 88 80 88 92 80 92
0 8 20 24 32 32 32 36 36 48 56 56 56 56 48 36 32 32 36 48 56 64 68 68 64 64 76 92 92 92 92 92 92 92 92 92 92 92 88 88 92 92 92 92 92 92 92 92 92 92 92 92 92 92 92 92 92 88 80 76 68 64 64 80 80 88 92 88 92
8 12 20 20 24 24 32 36 36 44 48 48 48 48 44 36 36 32 32 32 56 76 80 76 56 44 56 80 92 92 92 92 92 92 92 92 92 92 92 92 92 92 92 92 92 92 92 92 92 92 92 92 92 92 92 92 92 80 68 64 64 68 76 88 88 88 92 92 92
12 20 20 20 24 24 32 36 36 44 48 48 56 64 64 56 48 44 36 32 64 80 92 76 56 48 48 68 88 92 92 92 92 92 92 92 92 92 92 92 92 92 92 92 92 92 92 92 92 92 92 92 92 92 92 92 92 80 68 68 68 80 92 88 88 88 92 92 92
20 20 20 24 24 36 44 36 48 64 76 80 88 88 92 92 88 80 76 64 68 76 68 48 48 36 36 64 88 92 92 92 92 92 92 92 92 92 92 92 92 92 92 92 92 88 88 92 92 92 92 92 92 92 92 92 92 88 80 80 80 88 88 76 88 88 92 92 92
20 20 20 24 24 36 48 36 56 64 68 92 92 92 92 92 92 92 92 92 88 76 68 56 32 24 36 64 88 92 92 92 92 92 92 92 92 92 92 92 92 92 92 92 80 76 76 92 92 92 92 92 92 92 92 92 92 92 92 88 80 80 80 68 80 80 80 88 92
12 20 20 20 20 20 24 32 36 36 44 76 76 76 76 80 88 92 92 92 92 92 88 68 44 44 64 76 92 92 92 92 92 92 92 92 92 92 92 88 88 88 88 88 80 76 80 92 92 92 92 92 92 92 92 92 92 92 92 88 80 76 76 76 80 80 80 80 92